Date,TemperatureHighF,TemperatureAvgF,TemperatureLowF,DewpointHighF,DewpointAvgF,DewpointLowF,HumidityHigh,HumidityAvg,HumidityLow,PressureMaxIn,PressureMinIn,WindSpeedMaxMPH,WindSpeedAvgMPH,GustSpeedMaxMPH,PrecipitationSumIn
2014-2-1,37.5,30.1,26.2,28.2,20.5,13.7,93,68,45,30.17,29.96,5,2,13,0.00
2014-2-2,40.1,30.8,26.5,27.7,15.4,4.4,93,56,28,30.22,30.02,4,2,10,0.00
2014-2-3,36.5,30.4,26.5,30.4,27.5,23.4,97,89,68,30.06,29.92,4,2,11,0.00
2014-2-4,38.0,30.8,25.1,31.7,28.1,20.8,97,90,74,30.17,30.05,6,3,19,0.00
2014-2-5,41.7,34.0,28.8,33.7,26.2,13.4,95,75,38,30.19,30.06,8,2,14,0.01
2014-2-6,36.4,33.1,30.3,33.7,30.1,17.3,100,90,46,30.07,29.97,8,3,19,0.43
2014-2-7,40.8,35.5,31.8,38.4,28.5,3.1,100,81,23,30.22,30.04,8,4,20,0.06
2014-2-8,54.7,46.4,38.0,39.8,31.6,6.8,80,58,25,30.29,30.15,8,5,24,0.00
2014-2-9,55.5,50.6,45.6,39.9,15.3,-7.2,71,28,10,30.15,30.00,9,6,20,0.00
2014-2-10,52.6,47.1,42.3,41.3,33.3,17.2,83,60,28,30.03,29.93,9,4,22,0.00
2014-2-11,58.7,48.3,41.9,30.8,22.5,11.7,52,36,24,30.13,30.02,3,1,9,0.00
2014-2-12,66.3,54.4,46.8,27.5,22.3,13.1,36,29,20,30.18,30.07,6,2,14,0.00
2014-2-13,65.3,58.8,55.2,28.9,22.6,3.4,34,25,11,30.08,29.97,7,5,16,0.00
2014-2-14,67.0,60.0,55.0,23.4,12.5,3.0,21,15,10,30.01,29.96,7,4,15,0.00
2014-2-15,65.1,57.6,52.4,26.9,15.0,3.3,32,19,11,30.00,29.92,6,4,13,0.00
2014-2-16,60.1,53.3,48.7,28.6,21.2,-1.6,43,29,12,30.04,29.90,6,3,13,0.00
2014-2-17,58.5,50.6,46.3,38.0,20.8,-9.3,64,35,8,30.02,29.94,4,2,8,0.00
2014-2-18,63.7,52.4,45.8,20.0,7.9,-8.1,26,17,9,30.00,29.92,5,2,8,0.00
2014-2-19,59.1,51.5,46.4,38.7,16.2,2.9,69,27,13,29.92,29.82,7,4,20,0.00
2014-2-20,60.2,53.1,47.6,22.9,8.9,-4.0,33,18,9,30.00,29.89,5,2,8,0.00
2014-2-21,59.5,50.7,44.0,26.0,17.5,11.2,48,28,18,29.99,29.89,4,2,7,0.00
2014-2-22,57.5,49.3,45.0,24.3,18.9,8.5,40,30,20,29.93,29.85,5,2,11,0.00
2014-2-23,59.4,49.5,44.0,25.5,21.0,14.1,39,33,23,29.97,29.88,4,1,11,0.00
2014-2-24,62.2,48.7,44.5,26.5,22.3,17.1,46,36,23,29.98,29.92,5,1,11,0.00
2014-2-25,60.5,49.2,43.3,34.1,24.5,19.5,59,38,26,29.97,29.89,4,1,9,0.00
2014-2-26,51.8,43.7,38.4,39.8,32.7,20.2,96,68,39,30.03,29.91,6,2,14,0.00
2014-2-27,50.3,43.2,38.6,42.9,31.0,-7.4,100,71,11,30.07,29.90,7,3,16,0.45
2014-2-28,45.0,42.7,33.2,45.0,41.2,1.4,100,96,17,29.95,29.64,10,4,25,3.10